Printer-friendly version

IAU Minor Planet Center

Minor Planet Center

MPEC 2006-K37 : 2006 KP21

The following Minor Planet Electronic Circular may be linked-to from your own Web pages, but must not otherwise be redistributed electronically.


Read MPEC 2006-K36 Read MPEC 2006-K38


M.P.E.C. 2006-K37                                Issued 2006 May 24, 11:04 UT

     The Minor Planet Electronic Circulars contain information on unusual
         minor planets and routine data on comets.  They are published
   on behalf of Commission 20 of the International Astronomical Union by the
          Minor Planet Center, Smithsonian Astrophysical Observatory,
                          Cambridge, MA 02138, U.S.A.

                  Supported in part by the Brinson Foundation
                  Supported in part by the TABASGO Foundation
             Prepared using the Tamkin Foundation Computer Network

                              MPC@CFA.HARVARD.EDU
          URL http://cfa-www.harvard.edu/iau/mpc.html  ISSN 1523-6714

                                   2006 KP21

Observations:
     K06K21P* C2006 05 23.15948 13 24 48.60 -09 49 10.6          22.0 V EK037G96
     K06K21P  C2006 05 23.16454 13 24 50.22 -09 49 12.0          21.6 V EK037G96
     K06K21P  C2006 05 23.16970 13 24 51.87 -09 49 13.3          21.8 V EK037G96
     K06K21P  C2006 05 23.17482 13 24 53.56 -09 49 15.4          22.1 V EK037G96
     K06K21P  C2006 05 23.20385 13 25 03.00 -09 49 23.3          21.3 V EK037G96
     K06K21P  C2006 05 23.20473 13 25 03.36 -09 49 23.7          22.2 V EK037G96
     K06K21P  C2006 05 23.20561 13 25 03.57 -09 49 23.8          22.4 V EK037G96
     K06K21P  C2006 05 23.20649 13 25 03.79 -09 49 23.4                 EK037G96
     K06K21P  C2006 05 23.26903 13 25 24.31 -09 49 43.1                 EK037G96
     K06K21P  C2006 05 23.26991 13 25 24.52 -09 49 42.3          21.8 V EK037G96
     K06K21P  C2006 05 23.27079 13 25 24.78 -09 49 42.7          22.8 V EK037G96
     K06K21P HC2006 05 24.21202 13 30 38.15 -09 54 10.2                 EK037291
     K06K21P HC2006 05 24.21865 13 30 40.34 -09 54 12.1                 EK037291
     K06K21P HC2006 05 24.22251 13 30 41.41 -09 54 11.9                 EK037291
     K06K21P  C2006 05 24.25969 13 30 52.99 -09 54 24.4          21.5 V EK037G96
     K06K21P  C2006 05 24.26057 13 30 53.17 -09 54 24.0          21.4 V EK037G96
     K06K21P  C2006 05 24.26145 13 30 53.56 -09 54 24.6          22.5 V EK037G96
     K06K21P  C2006 05 24.26233 13 30 53.74 -09 54 24.4          21.4 V EK037G96

Observer details:
291 LPL/Spacewatch II.  Observer T. H. Bressi.  1.8-m f/2.7 reflector + CCD.
G96 Mt. Lemmon Survey.  Observers R. Hill, E. J. Christensen.  Measurers
    E. C. Beshore, E. J. Christensen, G. J. Garradd, A. R. Gibbs, A. D. Grauer,
    R. E. Hill, R. A. Kowalski, S. M. Larson, R. H. McNaught.  1.5-m reflector
    + CCD.

Orbital elements:
2006 KP21                                                Earth MOID = 0.0546 AU
Epoch 2006 Mar. 6.0 TT = JDT 2453800.5                  MPC
M 352.05144              (2000.0)            P               Q
n   0.33607519     Peri.  298.86656     -0.99469639     -0.07157878
a   2.0488575      Node   237.11902     +0.09317848     -0.93118895
e   0.5186233      Incl.    5.04578     -0.04355306     -0.35744036
P   2.93           H   23.5           G   0.15           U   9
Residuals in seconds of arc
060523 G96  0.7+  0.2-    060523 G96  0.3-  0.3+    060524 291  1.3+  0.2-
060523 G96  0.2+  0.0     060523 G96  1.3-  0.9+    060524 291  0.6-  1.1+
060523 G96  0.3-  0.2+    060523 G96  1.1+  1.1-    060524 G96  0.4+  1.2-
060523 G96  0.0   0.4-    060523 G96  0.1-  0.1-    060524 G96  0.9-  0.6-
060523 G96  0.3-  0.3+    060523 G96  0.5-  0.2-    060524 G96  0.8+  0.9-
060523 G96  0.8+  0.1+    060524 291  0.7-  0.1-    060524 G96  0.6-  0.5-

Ephemeris:
2006 KP21                a,e,i = 2.05, 0.52, 5                   q = 0.9863
Date    TT    R. A. (2000) Decl.     Delta      r     Elong.  Phase     V
2006 05 25    13 34.82   -09 57.3    0.223    1.197   142.0    31.4    22.0
2006 05 26    13 39.93   -10 01.7    0.230    1.203   142.3    31.0    22.0
2006 05 27    13 44.81   -10 06.0    0.237    1.210   142.4    30.7    22.1
2006 05 28    13 49.47   -10 10.1    0.244    1.216   142.6    30.4    22.2
2006 05 29    13 53.94   -10 14.2    0.251    1.223   142.7    30.2    22.2
2006 05 30    13 58.23   -10 18.3    0.259    1.229   142.7    30.0    22.3
2006 05 31    14 02.34   -10 22.3    0.266    1.236   142.7    29.8    22.4
2006 06 01    14 06.29   -10 26.2    0.274    1.243   142.7    29.7    22.4
2006 06 02    14 10.09   -10 30.2    0.281    1.249   142.6    29.5    22.5
2006 06 03    14 13.74   -10 34.2    0.289    1.256   142.5    29.5    22.6
2006 06 04    14 17.27   -10 38.2    0.297    1.263   142.4    29.4    22.7
2006 06 05    14 20.66   -10 42.2    0.305    1.270   142.2    29.3    22.7
2006 06 06    14 23.95   -10 46.3    0.314    1.277   142.0    29.3    22.8
2006 06 07    14 27.12   -10 50.4    0.322    1.283   141.8    29.3    22.9
2006 06 08    14 30.19   -10 54.5    0.331    1.290   141.6    29.3    22.9
2006 06 09    14 33.16   -10 58.7    0.339    1.297   141.3    29.3    23.0
2006 06 10    14 36.04   -11 02.9    0.348    1.304   141.0    29.3    23.1
2006 06 11    14 38.84   -11 07.2    0.357    1.311   140.8    29.3    23.1
2006 06 12    14 41.56   -11 11.5    0.366    1.318   140.5    29.4    23.2
2006 06 13    14 44.21   -11 15.9    0.375    1.325   140.1    29.4    23.3
2006 06 14    14 46.79   -11 20.4    0.384    1.332   139.8    29.5    23.3

Timothy B. Spahr             (C) Copyright 2006 MPC           M.P.E.C. 2006-K37

Read MPEC 2006-K36 Read MPEC 2006-K38


Our Web policy. Index to the CBAT/MPC/ICQ pages.


Valid HTML 4.01!